| time (UTC) | temp C | wind direction | speed KPH | gust KPH | rain 1hr cm | rain 24hr cm | rain mn cm | humidity % | barometer mb |
| 20260506051136 | -17 | 0.0 | 0.0 | 0.00 | 0.00 | 0.00 | 1010.9 | ||
| 20260506050636 | -17 | 0.0 | 0.0 | 0.00 | 0.00 | 0.00 | 1010.9 | ||
| 20260506050136 | 15 | 337 | 1.6 | 3.2 | 0.00 | 0.00 | 0.00 | 82 | 1010.7 |
| 20260506045136 | 15 | 70 | 4.8 | 8.0 | 0.00 | 0.00 | 0.00 | 81 | 1010.5 |
| 20260506043133 | 16 | 80 | 6.4 | 9.7 | 0.00 | 0.00 | 0.00 | 80 | 1010.9 |
| 20260506042631 | 16 | 203 | 8.0 | 9.7 | 0.00 | 0.00 | 0.00 | 81 | 1010.9 |
| 20260506042132 | 16 | 351 | 4.8 | 4.8 | 0.00 | 0.00 | 0.00 | 81 | 1010.5 |
| 20260506041132 | 16 | 212 | 4.8 | 11.3 | 0.00 | 0.00 | 0.00 | 81 | 1010.7 |
| 20260506040632 | 16 | 66 | 6.4 | 9.7 | 0.00 | 0.00 | 0.00 | 82 | 1010.7 |
| 20260506040131 | 16 | 1 | 3.2 | 3.2 | 0.00 | 0.00 | 0.00 | 83 | 1010.5 |
| 20260506035630 | 16 | 155 | 4.8 | 9.7 | 0.00 | 0.00 | 0.03 | 83 | 1010.5 |
| 20260506035131 | 16 | 14 | 3.2 | 4.8 | 0.00 | 0.00 | 0.03 | 83 | 1010.5 |
| 20260506034630 | 16 | 354 | 1.6 | 1.6 | 0.00 | 0.00 | 0.03 | 82 | 1010.5 |
| 20260506034131 | 16 | 2 | 1.6 | 3.2 | 0.00 | 0.00 | 0.03 | 83 | 1010.1 |
| 20260506033629 | 16 | 345 | 1.6 | 1.6 | 0.00 | 0.00 | 0.03 | 82 | 1010.5 |
| 20260506033128 | 16 | 49 | 4.8 | 8.0 | 0.00 | 0.00 | 0.03 | 82 | 1010.5 |
| 20260506032629 | 16 | 49 | 4.8 | 8.0 | 0.00 | 0.00 | 0.03 | 82 | 1010.5 |
| 20260506032129 | 16 | 239 | 4.8 | 8.0 | 0.00 | 0.00 | 0.03 | 82 | 1010.5 |
| 20260506031628 | 16 | 239 | 4.8 | 8.0 | 0.00 | 0.00 | 0.03 | 82 | 1010.7 |
| 20260506031127 | -17 | 0.0 | 0.0 | 0.00 | 0.00 | 0.03 | 1010.9 | ||
| 20260506030627 | -17 | 0.0 | 0.0 | 0.00 | 0.00 | 0.03 | 1010.9 | ||
| 20260506030125 | -17 | 0.0 | 0.0 | 0.00 | 0.00 | 0.03 | 1010.9 | ||
| 20260506025126 | -17 | 0.0 | 0.0 | 0.00 | 0.00 | 0.03 | 1010.9 | ||
| 20260506024124 | -17 | 0.0 | 0.0 | 0.00 | 0.00 | 0.03 | 1010.5 | ||
| 20260506023625 | -17 | 0.0 | 0.0 | 0.00 | 0.00 | 0.03 | 1010.5 | ||
| 20260506023126 | -17 | 0.0 | 0.0 | 0.00 | 0.00 | 0.03 | 1010.5 | ||
| 20260506022124 | -17 | 0.0 | 0.0 | 0.00 | 0.00 | 0.03 | 1010.5 | ||
| 20260506021627 | -17 | 0.0 | 0.0 | 0.00 | 0.00 | 0.03 | 1010.5 | ||
| 20260506021124 | -17 | 0.0 | 0.0 | 0.00 | 0.00 | 0.03 | 1010.5 | ||
| 20260506020622 | -17 | 0.0 | 0.0 | 0.00 | 0.00 | 0.03 | 1010.7 | ||
| 20260506020123 | -17 | 0.0 | 0.0 | 0.00 | 0.00 | 0.03 | |||
| 20260506015622 | -17 | 0.0 | 0.0 | 0.00 | 0.00 | 0.03 | 1010.9 | ||
| 20260506015124 | -17 | 0.0 | 0.0 | 0.00 | 0.00 | 0.03 | 1010.7 | ||
| 20260506014622 | -17 | 0.0 | 0.0 | 0.00 | 0.00 | 0.03 | 1010.5 | ||
| 20260506014121 | -17 | 0.0 | 0.0 | 0.00 | 0.00 | 0.03 | 1010.5 | ||
| 20260506013121 | -17 | 0.0 | 0.0 | 0.00 | 0.00 | 0.03 | 1010.1 | ||
| 20260506012622 | -17 | 0.0 | 0.0 | 0.00 | 0.00 | 0.03 | 1010.1 | ||
| 20260506012121 | 15 | 340 | 3.2 | 3.2 | 0.00 | 0.00 | 0.03 | 92 | 1010.3 |
| 20260506011621 | 15 | 340 | 3.2 | 3.2 | 0.00 | 0.00 | 0.03 | 92 | 1010.3 |
| 20260506010619 | 15 | 345 | 1.6 | 1.6 | 0.00 | 0.00 | 0.03 | 95 | 1010.1 |
| 20260506010126 | 15 | 0.0 | 0.0 | 0.00 | 0.00 | 0.03 | 94 | 1010.1 | |
| 20260506005617 | 15 | 336 | 1.6 | 3.2 | 0.00 | 0.00 | 0.03 | 93 | 1009.8 |
| 20260506005118 | 16 | 7 | 3.2 | 3.2 | 0.00 | 0.00 | 0.03 | 89 | 1009.8 |
| 20260506004618 | 16 | 316 | 1.6 | 3.2 | 0.00 | 0.00 | 0.03 | 86 | 1010.0 |
| 20260506004118 | 17 | 343 | 0.0 | 1.6 | 0.00 | 0.00 | 0.00 | 80 | 1010.1 |
| 20260506003616 | -17 | 0.0 | 0.0 | 0.00 | 0.00 | 0.00 | 1009.8 | ||
| 20260506003117 | -17 | 0.0 | 0.0 | 0.00 | 0.00 | 0.00 | 1010.0 | ||
| 20260506002748 | -17 | 0.0 | 0.0 | 0.00 | 0.00 | 0.00 | 1010.1 | ||
| 20260506002147 | -17 | 0.0 | 0.0 | 0.00 | 0.00 | 0.00 | 1010.1 | ||
| 20260506001645 | 17 | 0.0 | 0.0 | 0.00 | 0.00 | 0.00 | 81 | 1010.1 | |
| 20260506001149 | 17 | 323 | 0.0 | 1.6 | 0.00 | 0.00 | 0.00 | 80 | 1009.8 |
| 20260506000645 | 18 | 0.0 | 0.0 | 0.00 | 0.00 | 0.00 | 74 | 1009.8 | |
| 20260506000144 | 18 | 0.0 | 0.0 | 0.00 | 0.00 | 0.00 | 74 | 1009.8 | |
| 20260505235809 | 18 | 343 | 0.0 | 1.6 | 0.00 | 0.00 | 0.00 | 73 | 1009.8 |
| 20260505231135 | 18 | 4 | 16.1 | 25.7 | 0.00 | 0.00 | 0.00 | 75 | 1009.1 |
| 20260505230133 | 17 | 339 | 4.8 | 4.8 | 0.00 | 0.00 | 0.00 | 78 | 1008.7 |
| 20260505225633 | 17 | 306 | 3.2 | 8.0 | 0.00 | 0.00 | 0.00 | 81 | 1008.7 |
| 20260505225135 | 17 | 307 | 4.8 | 9.7 | 0.00 | 0.00 | 0.00 | 81 | 1008.9 |
| 20260505224632 | 17 | 326 | 3.2 | 4.8 | 0.00 | 0.00 | 0.00 | 80 | 1008.7 |
| 20260505224232 | 17 | 335 | 8.0 | 12.9 | 0.00 | 0.00 | 0.00 | 81 | 1008.7 |
| 20260505223631 | 18 | 340 | 3.2 | 3.2 | 0.00 | 0.00 | 0.00 | 81 | 1008.7 |
| 20260505223232 | 18 | 320 | 4.8 | 8.0 | 0.00 | 0.00 | 0.00 | 74 | 1008.4 |
| 20260505222631 | 20 | 317 | 16.1 | 27.4 | 0.00 | 0.00 | 0.00 | 66 | 1008.4 |
| 20260505222131 | 20 | 313 | 4.8 | 8.0 | 0.00 | 0.00 | 0.00 | 63 | 1008.0 |
| 20260505221130 | 21 | 335 | 3.2 | 4.8 | 0.00 | 0.00 | 0.00 | 60 | 1007.5 |
| 20260505220630 | 21 | 325 | 1.6 | 3.2 | 0.00 | 0.00 | 0.00 | 57 | 1007.3 |
| 20260505220129 | 22 | 358 | 4.8 | 4.8 | 0.00 | 0.00 | 0.00 | 54 | 1007.3 |
| 20260505215127 | 25 | 318 | 3.2 | 4.8 | 0.00 | 0.00 | 0.00 | 41 | 1007.2 |
| 20260505214629 | 24 | 343 | 3.2 | 4.8 | 0.00 | 0.00 | 0.00 | 41 | 1007.0 |
| 20260505214128 | 24 | 352 | 1.6 | 3.2 | 0.00 | 0.00 | 0.00 | 41 | 1007.0 |
| 20260505213628 | 24 | 319 | 3.2 | 8.0 | 0.00 | 0.00 | 0.00 | 43 | 1006.8 |
| 20260505213126 | 24 | 341 | 1.6 | 3.2 | 0.00 | 0.00 | 0.00 | 42 | 1007.0 |
| 20260505212628 | 25 | 353 | 12.9 | 20.9 | 0.00 | 0.00 | 0.00 | 42 | 1007.3 |
| 20260505212130 | 25 | 322 | 3.2 | 8.0 | 0.00 | 0.00 | 0.00 | 42 | 1007.0 |
| 20260505211627 | 25 | 2 | 3.2 | 8.0 | 0.00 | 0.00 | 0.00 | 41 | 1007.0 |
| 20260505211125 | 25 | 339 | 8.0 | 14.5 | 0.00 | 0.00 | 0.00 | 40 | 1007.0 |
| 20260505210624 | 25 | 228 | 12.9 | 17.7 | 0.00 | 0.00 | 0.00 | 40 | 1007.0 |
| 20260505210125 | 26 | 323 | 4.8 | 9.7 | 0.00 | 0.00 | 0.00 | 40 | 1006.6 |
| 20260505205624 | 26 | 241 | 8.0 | 9.7 | 0.00 | 0.00 | 0.00 | 40 | 1006.3 |
| 20260505205124 | 25 | 44 | 11.3 | 17.7 | 0.00 | 0.00 | 0.00 | 40 | 1006.3 |
| 20260505204623 | 26 | 76 | 6.4 | 11.3 | 0.00 | 0.00 | 0.00 | 40 | 1006.3 |
| 20260505204124 | 26 | 336 | 9.7 | 17.7 | 0.00 | 0.00 | 0.00 | 40 | 1006.3 |
| 20260505203623 | 25 | 320 | 4.8 | 8.0 | 0.00 | 0.00 | 0.00 | 41 | 1006.1 |
| 20260505203122 | 25 | 322 | 6.4 | 9.7 | 0.00 | 0.00 | 0.00 | 40 | 1006.1 |
| 20260505202622 | 25 | 143 | 16.1 | 24.1 | 0.00 | 0.00 | 0.00 | 40 | 1006.3 |
| 20260505202123 | 25 | 258 | 8.0 | 11.3 | 0.00 | 0.00 | 0.00 | 40 | 1006.3 |
| 20260505201622 | 26 | 171 | 22.5 | 38.6 | 0.00 | 0.00 | 0.00 | 40 | 1006.3 |
| 20260505201121 | 26 | 320 | 3.2 | 8.0 | 0.00 | 0.00 | 0.00 | 40 | 1005.9 |
| 20260505200722 | 26 | 301 | 6.4 | 11.3 | 0.00 | 0.00 | 0.00 | 39 | 1006.3 |
| 20260505200123 | 25 | 318 | 4.8 | 11.3 | 0.00 | 0.00 | 0.00 | 39 | 1006.6 |
| 20260505195621 | 26 | 111 | 12.9 | 16.1 | 0.00 | 0.00 | 0.00 | 39 | 1006.6 |
| 20260505195120 | 26 | 323 | 1.6 | 3.2 | 0.00 | 0.00 | 0.00 | 40 | 1006.6 |
| 20260505194619 | 25 | 7 | 9.7 | 17.7 | 0.00 | 0.00 | 0.00 | 39 | 1006.8 |
| 20260505194120 | 25 | 350 | 1.6 | 3.2 | 0.00 | 0.00 | 0.00 | 39 | 1006.8 |
| 20260505193619 | 25 | 277 | 8.0 | 27.4 | 0.00 | 0.00 | 0.00 | 39 | 1006.6 |
| 20260505192618 | 25 | 144 | 8.0 | 16.1 | 0.00 | 0.00 | 0.00 | 39 | 1006.8 |
| 20260505192120 | 26 | 170 | 8.0 | 14.5 | 0.00 | 0.00 | 0.00 | 37 | 1007.0 |
| 20260505191122 | 26 | 312 | 9.7 | 16.1 | 0.00 | 0.00 | 0.00 | 37 | 1007.0 |
| 20260505190117 | 26 | 328 | 12.9 | 27.4 | 0.00 | 0.00 | 0.00 | 38 | 1006.6 |
| 20260505185618 | 26 | 177 | 16.1 | 25.7 | 0.00 | 0.00 | 0.00 | 37 | 1006.8 |
| 20260505185116 | 26 | 179 | 9.7 | 17.7 | 0.00 | 0.00 | 0.00 | 38 | 1007.0 |
| 20260505184647 | 26 | 329 | 3.2 | 8.0 | 0.00 | 0.00 | 0.00 | 37 | 1007.3 |
| 20260505184146 | 26 | 29 | 11.3 | 17.7 | 0.00 | 0.00 | 0.00 | 38 | 1007.2 |
| 20260505183646 | 26 | 321 | 6.4 | 12.9 | 0.00 | 0.00 | 0.00 | 37 | 1007.0 |
| 20260505183144 | 26 | 167 | 9.7 | 14.5 | 0.00 | 0.00 | 0.00 | 37 | 1007.3 |
| 20260505182643 | 27 | 272 | 11.3 | 20.9 | 0.00 | 0.00 | 0.00 | 36 | 1007.3 |
| 20260505182245 | 26 | 161 | 9.7 | 17.7 | 0.00 | 0.00 | 0.00 | 41 | 1007.2 |
| 20260505181644 | 26 | 290 | 17.7 | 32.2 | 0.00 | 0.00 | 0.00 | 38 | 1007.0 |
| 20260505181144 | 26 | 9 | 6.4 | 11.3 | 0.00 | 0.00 | 0.00 | 37 | 1007.3 |
| 20260505180644 | 26 | 300 | 11.3 | 20.9 | 0.00 | 0.00 | 0.00 | 38 | 1007.7 |
| 20260505175643 | 25 | 139 | 9.7 | 14.5 | 0.00 | 0.00 | 0.00 | 46 | 1007.7 |
| 20260505175142 | 25 | 216 | 11.3 | 16.1 | 0.00 | 0.00 | 0.00 | 43 | 1007.7 |
| 20260505174641 | 25 | 159 | 9.7 | 16.1 | 0.00 | 0.00 | 0.00 | 39 | 1007.7 |
| 20260505174142 | 25 | 287 | 8.0 | 14.5 | 0.00 | 0.00 | 0.00 | 37 | 1007.7 |
| 20260505173641 | 26 | 277 | 8.0 | 12.9 | 0.00 | 0.00 | 0.00 | 38 | 1008.2 |
| 20260505173141 | 26 | 20 | 14.5 | 32.2 | 0.00 | 0.00 | 0.00 | 37 | 1008.0 |
| 20260505172640 | 26 | 351 | 14.5 | 17.7 | 0.00 | 0.00 | 0.00 | 38 | 1008.0 |
| 20260505172139 | 26 | 162 | 16.1 | 20.9 | 0.00 | 0.00 | 0.00 | 39 | 1008.0 |
| 20260505171640 | 26 | 282 | 11.3 | 25.7 | 0.00 | 0.00 | 0.00 | 40 | 1008.0 |
| 20260505171139 | 25 | 352 | 12.9 | 24.1 | 0.00 | 0.00 | 0.00 | 38 | 1008.0 |
| 20260505160636 | 23 | 313 | 4.8 | 8.0 | 0.00 | 0.00 | 0.00 | 50 | 1009.1 |
| 20260505160134 | 23 | 147 | 17.7 | 22.5 | 0.00 | 0.00 | 0.00 | 51 | 1008.7 |
| 20260505153132 | 22 | 161 | 8.0 | 12.9 | 0.00 | 0.00 | 0.00 | 56 | 1009.8 |
| 20260505152632 | 22 | 187 | 12.9 | 16.1 | 0.00 | 0.00 | 0.00 | 55 | 1009.8 |
| 20260505152133 | 21 | 165 | 14.5 | 22.5 | 0.00 | 0.00 | 0.00 | 58 | 1009.8 |
| 20260505151632 | 21 | 146 | 16.1 | 20.9 | 0.00 | 0.00 | 0.00 | 58 | 1009.8 |
| 20260505151131 | 20 | 160 | 14.5 | 14.5 | 0.00 | 0.00 | 0.00 | 59 | 1010.1 |
| 20260505150630 | 20 | 227 | 11.3 | 14.5 | 0.00 | 0.00 | 0.00 | 58 | 1009.8 |
| 20260505150129 | 20 | 125 | 8.0 | 12.9 | 0.00 | 0.00 | 0.00 | 60 | 1010.1 |
| 20260505140627 | 17 | 120 | 9.7 | 11.3 | 0.00 | 0.00 | 0.00 | 68 | 1010.3 |
| 20260505130122 | 14 | 146 | 11.3 | 16.1 | 0.00 | 0.00 | 0.00 | 76 | 1010.1 |
| 20260505124621 | 13 | 163 | 14.5 | 17.7 | 0.00 | 0.00 | 0.00 | 79 | 1010.3 |
| 20260505124120 | 12 | 170 | 8.0 | 11.3 | 0.00 | 0.00 | 0.00 | 80 | 1010.1 |
| 20260505123720 | 12 | 173 | 9.7 | 12.9 | 0.00 | 0.00 | 0.00 | 81 | 1010.1 |
| 20260505123121 | 12 | 123 | 12.9 | 22.5 | 0.00 | 0.00 | 0.00 | 81 | 1010.1 |
| 20260505122119 | 11 | 146 | 14.5 | 20.9 | 0.00 | 0.00 | 0.00 | 84 | 1010.1 |
| 20260505121622 | 11 | 142 | 12.9 | 17.7 | 0.00 | 0.00 | 0.00 | 86 | 1010.1 |
| 20260505121120 | 10 | 192 | 4.8 | 4.8 | 0.00 | 0.00 | 0.00 | 87 | 1010.1 |
| 20260505120619 | 10 | 206 | 8.0 | 11.3 | 0.00 | 0.00 | 0.00 | 87 | 1010.1 |
| 20260505120118 | 11 | 213 | 8.0 | 11.3 | 0.00 | 0.00 | 0.00 | 86 | 1010.3 |
| 20260505115619 | 11 | 161 | 11.3 | 14.5 | 0.00 | 0.00 | 0.00 | 85 | 1010.1 |
| 20260505115118 | 11 | 57 | 4.8 | 4.8 | 0.00 | 0.00 | 0.00 | 84 | 1010.1 |
| 20260505114617 | 11 | 143 | 6.4 | 11.3 | 0.00 | 0.00 | 0.00 | 83 | 1010.5 |
| 20260505113619 | 11 | 276 | 3.2 | 3.2 | 0.00 | 0.00 | 0.00 | 83 | 1010.5 |
| 20260505112616 | 11 | 141 | 12.9 | 16.1 | 0.00 | 0.00 | 0.00 | 84 | 1010.7 |
| 20260505112145 | 11 | 121 | 6.4 | 9.7 | 0.00 | 0.00 | 0.00 | 85 | 1010.5 |
| 20260505111646 | 10 | 90 | 8.0 | 16.1 | 0.00 | 0.00 | 0.00 | 86 | 1010.1 |
| 20260505110645 | 10 | 156 | 8.0 | 9.7 | 0.00 | 0.00 | 0.00 | 86 | 1010.1 |
| 20260505110144 | 10 | 186 | 8.0 | 11.3 | 0.00 | 0.00 | 0.00 | 87 | 1010.1 |
| 20260505102141 | 8 | 107 | 6.4 | 9.7 | 0.00 | 0.00 | 0.00 | 91 | 1009.8 |
| 20260505101642 | 8 | 173 | 8.0 | 11.3 | 0.00 | 0.00 | 0.00 | 90 | 1009.8 |
| 20260505101142 | 8 | 59 | 4.8 | 8.0 | 0.00 | 0.00 | 0.00 | 90 | 1009.4 |
| 20260505100641 | 8 | 9 | 4.8 | 4.8 | 0.00 | 0.00 | 0.00 | 90 | 1009.6 |
| 20260505100140 | 8 | 38 | 4.8 | 4.8 | 0.00 | 0.00 | 0.00 | 90 | 1009.8 |
| 20260505095641 | 8 | 19 | 3.2 | 4.8 | 0.00 | 0.00 | 0.00 | 90 | 1009.8 |
| 20260505095140 | 8 | 126 | 4.8 | 9.7 | 0.00 | 0.00 | 0.00 | 90 | 1009.8 |
| 20260505094639 | 8 | 86 | 4.8 | 8.0 | 0.00 | 0.00 | 0.00 | 90 | 1009.8 |
| 20260505094139 | 8 | 21 | 3.2 | 4.8 | 0.00 | 0.00 | 0.00 | 89 | 1009.8 |
| 20260505093640 | 9 | 59 | 4.8 | 4.8 | 0.00 | 0.00 | 0.00 | 88 | 1009.8 |
| 20260505093139 | 9 | 259 | 8.0 | 11.3 | 0.00 | 0.00 | 0.00 | 87 | 1009.6 |
| 20260505092640 | 9 | 319 | 3.2 | 3.2 | 0.00 | 0.00 | 0.00 | 87 | 1009.4 |
| 20260505092140 | 9 | 267 | 8.0 | 9.7 | 0.00 | 0.00 | 0.00 | 87 | 1009.8 |
| 20260505091639 | 9 | 18 | 3.2 | 3.2 | 0.00 | 0.00 | 0.00 | 87 | 1009.8 |
| 20260505091138 | 9 | 332 | 3.2 | 3.2 | 0.00 | 0.00 | 0.00 | 87 | 1009.8 |
| 20260505090638 | 9 | 141 | 8.0 | 9.7 | 0.00 | 0.00 | 0.00 | 86 | 1009.8 |
| 20260505090136 | 10 | 253 | 4.8 | 12.9 | 0.00 | 0.00 | 0.00 | 86 | 1010.0 |
| 20260505085639 | 10 | 342 | 3.2 | 8.0 | 0.00 | 0.00 | 0.00 | 85 | 1009.8 |
| 20260505085136 | 10 | 224 | 8.0 | 12.9 | 0.00 | 0.00 | 0.00 | 85 | 1009.8 |
| 20260505084636 | 10 | 317 | 1.6 | 3.2 | 0.00 | 0.00 | 0.00 | 85 | 1010.0 |
| 20260505084136 | 10 | 21 | 3.2 | 3.2 | 0.00 | 0.00 | 0.00 | 85 | 1010.1 |
| 20260505083135 | 10 | 356 | 1.6 | 3.2 | 0.00 | 0.00 | 0.00 | 85 | 1010.1 |
| 20260505082734 | 10 | 8 | 3.2 | 3.2 | 0.00 | 0.00 | 0.00 | 85 | 1010.1 |
| 20260505082134 | 10 | 360 | 1.6 | 3.2 | 0.00 | 0.00 | 0.00 | 85 | 1010.1 |
| 20260505081635 | 10 | 275 | 3.2 | 4.8 | 0.00 | 0.00 | 0.00 | 85 | 1010.1 |
| 20260505080635 | 10 | 323 | 4.8 | 8.0 | 0.00 | 0.00 | 0.00 | 85 | 1009.8 |
| 20260505080133 | 10 | 37 | 4.8 | 4.8 | 0.00 | 0.00 | 0.00 | 84 | 1009.8 |
| 20260505075634 | 10 | 203 | 4.8 | 4.8 | 0.00 | 0.00 | 0.00 | 84 | 1010.0 |
| 20260505075134 | 10 | 3 | 4.8 | 4.8 | 0.00 | 0.00 | 0.00 | 84 | 1010.1 |
| 20260505074734 | 10 | 88 | 4.8 | 8.0 | 0.00 | 0.00 | 0.00 | 83 | 1010.1 |
| 20260505074137 | 10 | 205 | 6.4 | 12.9 | 0.00 | 0.00 | 0.00 | 83 | 1010.1 |
| 20260505073632 | 10 | 334 | 1.6 | 3.2 | 0.00 | 0.00 | 0.00 | 83 | 1010.1 |
| 20260505073131 | 10 | 0 | 1.6 | 3.2 | 0.00 | 0.00 | 0.00 | 82 | 1010.1 |
| 20260505072630 | 10 | 358 | 1.6 | 3.2 | 0.00 | 0.00 | 0.00 | 82 | 1010.1 |
| 20260505072130 | 10 | 350 | 4.8 | 4.8 | 0.00 | 0.00 | 0.00 | 82 | 1010.1 |
| 20260505071629 | 10 | 183 | 4.8 | 8.0 | 0.00 | 0.00 | 0.00 | 82 | 1010.1 |
| 20260505071130 | 10 | 25 | 3.2 | 4.8 | 0.00 | 0.00 | 0.00 | 83 | 1010.3 |
| 20260505070629 | 10 | 91 | 3.2 | 4.8 | 0.00 | 0.00 | 0.00 | 82 | 1010.5 |
| 20260505070128 | 10 | 51 | 3.2 | 4.8 | 0.00 | 0.00 | 0.00 | 82 | 1010.5 |
| 20260505065629 | 10 | 133 | 4.8 | 8.0 | 0.00 | 0.00 | 0.00 | 81 | 1010.1 |
| 20260505065129 | 10 | 6 | 4.8 | 8.0 | 0.00 | 0.00 | 0.00 | 81 | 1010.5 |
| 20260505064628 | 10 | 58 | 4.8 | 8.0 | 0.00 | 0.00 | 0.00 | 81 | 1010.5 |
| 20260505064127 | 10 | 193 | 6.4 | 9.7 | 0.00 | 0.00 | 0.00 | 80 | 1010.1 |
| 20260505063125 | 10 | 128 | 4.8 | 8.0 | 0.00 | 0.00 | 0.00 | 80 | 1010.5 |
| 20260505062126 | 10 | 131 | 4.8 | 4.8 | 0.00 | 0.00 | 0.00 | 80 | 1010.5 |
| 20260505061625 | 10 | 145 | 8.0 | 16.1 | 0.00 | 0.00 | 0.00 | 79 | 1010.5 |
| 20260505061124 | 10 | 137 | 9.7 | 11.3 | 0.00 | 0.00 | 0.00 | 79 | 1010.5 |
| 20260505060627 | 10 | 144 | 4.8 | 11.3 | 0.00 | 0.00 | 0.00 | 79 | 1010.5 |
| 20260505055725 | 10 | 183 | 11.3 | 14.5 | 0.00 | 0.00 | 0.00 | 78 | 1010.5 |
| 20260505055125 | 10 | 188 | 9.7 | 12.9 | 0.00 | 0.00 | 0.00 | 79 | 1010.5 |
| 20260505054624 | 10 | 99 | 6.4 | 9.7 | 0.00 | 0.00 | 0.00 | 80 | 1010.5 |
| 20260505054123 | 10 | 34 | 4.8 | 4.8 | 0.00 | 0.00 | 0.00 | 80 | 1010.5 |
| 20260505053624 | 10 | 71 | 9.7 | 11.3 | 0.00 | 0.00 | 0.00 | 80 | 1010.5 |
| 20260505053121 | 10 | 45 | 4.8 | 8.0 | 0.00 | 0.00 | 0.00 | 80 | 1010.5 |